Location: ????????
(56.0167°N, 38.0333°E)
Time: 02:42:38
(UTC+00:00)

Cosmos 2344 - Pass Details

Date: 19 May 2025
Orbit: 1200 x 3042 km, 63.3° (Epoch: 15 June)

Event Time Altitude Azimuth Distance (km) Brightness Sun altitude
Rises 19:16:29 0° 248° (WSW) 4,226 6.4 -9.4°
Reaches altitude 10° 19:19:18 10° 251° (WSW) 3,185 5.8 -9.6°
Maximum altitude 19:26:32 67° 334° (NNW) 1,311 4.0 -10.0°
Drops below altitude 10° 19:34:17 10° 57° (ENE) 3,406 5.9 -10.5°
Sets 19:37:24 0° 61° (ENE) 4,542 6.5 -10.7°
